Kekaha, HI

7:54 PM HST on September 30, 2016 (GMT -1000)
Barking Sands PMRF

Weather History for PHBK - January, 2013

Change the Weather History Date:

Thursday, January 31, 2013

  Actual Average Record
Temperature  
Mean Temperature 72 °F -  
Max Temperature 81 °F 77 °F 82 °F (1951)
Min Temperature 64 °F 59 °F 52 °F (1977)
Cooling Degree Days 8    
Growing Degree Days 22 (Base 50)    
Moisture  
Dew Point 60 °F    
Average Humidity 68    
Maximum Humidity 81    
Minimum Humidity 50    
Precipitation  
Precipitation 0.00 in - - ()
Sea Level Pressure  
Sea Level Pressure 30.08 in    
Wind  
Wind Speed 6 mph (NE)    
Max Wind Speed 15 mph    
Max Gust Speed 17 mph    
Visibility 10 miles    
Events      
Averages and records for this station are not official NWS values.
T = Trace of Precipitation, MM = Missing Value Source: NWS Daily Summary

Daily Weather History Graph

Daily Weather History Graph

Search for Another Location

Airport or City:

Trip Planner

Search our weather history database for the weather conditions in past years. The results will help you decide how hot, cold, wet, or windy it might be!

Date:

Astronomy

Jan. 31, 2013 Rise Set
Actual Time 7:17 AM HST 6:27 PM HST
Civil Twilight 6:54 AM HST 6:51 PM HST
Nautical Twilight 6:27 AM HST 7:18 PM HST
Astronomical Twilight 6:00 AM HST 7:44 PM HST
Moon 10:56 PM HST (1/31) 10:05 AM HST (1/31)
Length of Visible Light 11h 57m
Length of Day
11h 10m
Waning Gibbous, 78% of the Moon is Illuminated
Jan 31
Waning Gibbous
Feb 3
Last Quarter
Feb 9
New
Feb 17
First Quarter
Feb 25
Full

Hourly Weather History & Observations

Time (HST) Temp. Heat Index Dew Point Humidity Pressure Visibility Wind Dir Wind Speed Gust Speed Precip Events Conditions
12:56 AM 66.0 °F - 57.9 °F 75% 30.07 in 10.0 mi East 5.8 mph - N/A   Clear
1:56 AM 64.9 °F - 57.9 °F 78% 30.06 in 10.0 mi East 4.6 mph - N/A   Clear
2:56 AM 64.9 °F - 57.9 °F 78% 30.06 in 10.0 mi East 5.8 mph - N/A   Clear
3:56 AM 66.0 °F - 57.9 °F 75% 30.06 in 10.0 mi East 5.8 mph - N/A   Clear
4:56 AM 66.0 °F - 60.1 °F 81% 30.06 in 10.0 mi ENE 5.8 mph - N/A   Clear
5:56 AM 64.0 °F - 57.9 °F 80% 30.06 in 10.0 mi East 4.6 mph - N/A   Clear
6:56 AM 64.9 °F - 55.9 °F 73% 30.08 in 10.0 mi ENE 4.6 mph - N/A   Clear
7:56 AM 66.0 °F - 60.1 °F 81% 30.10 in 10.0 mi East 3.5 mph - N/A   Clear
8:56 AM 73.0 °F - 62.1 °F 68% 30.12 in 10.0 mi Calm Calm - N/A   Clear
9:56 AM 77.0 °F - 57.9 °F 52% 30.12 in 10.0 mi Calm Calm - N/A   Partly Cloudy
10:56 AM 77.0 °F - 61.0 °F 58% 30.12 in 10.0 mi NNW 6.9 mph - N/A   Partly Cloudy
11:56 AM 80.1 °F 80.9 °F 60.1 °F 50% 30.10 in 10.0 mi North 9.2 mph - N/A   Clear
12:56 PM 80.1 °F 81.2 °F 62.1 °F 54% 30.08 in 10.0 mi North 15.0 mph - N/A   Clear
1:56 PM 81.0 °F 81.7 °F 61.0 °F 50% 30.06 in 10.0 mi North 12.7 mph - N/A   Clear
2:56 PM 81.0 °F 81.9 °F 62.1 °F 52% 30.04 in 10.0 mi North 11.5 mph 17.3 mph N/A   Clear
3:56 PM 79.0 °F - 61.0 °F 54% 30.04 in 10.0 mi NW 9.2 mph - N/A   Partly Cloudy
4:56 PM 79.0 °F - 63.0 °F 58% 30.04 in 10.0 mi North 9.2 mph - N/A   Scattered Clouds
5:56 PM 77.0 °F - 63.0 °F 62% 30.05 in 10.0 mi North 8.1 mph - N/A   Partly Cloudy
6:56 PM 73.9 °F - 66.0 °F 76% 30.06 in 10.0 mi NNE 4.6 mph - N/A   Clear
7:56 PM 73.0 °F - 64.9 °F 76% 30.09 in 10.0 mi Calm Calm - N/A   Clear
8:56 PM 71.1 °F - 61.0 °F 70% 30.10 in 10.0 mi NNE 4.6 mph - N/A   Clear
9:56 PM 68.0 °F - 60.1 °F 76% 30.10 in 10.0 mi ENE 3.5 mph - N/A   Clear
10:56 PM 66.9 °F - 61.0 °F 81% 30.10 in 10.0 mi Calm Calm - N/A   Clear
11:56 PM 66.0 °F - 57.0 °F 73% 30.10 in 10.0 mi Calm Calm - N/A   Clear